Regional Weather Roundup
Issued by NWS Columbia, SC

Home | Current Version | Previous Version | Text Only | Print | Product List | Glossary On
Versions: 1 2 3 4 5 6 7 8 9 10 11 12 13 14 15 16 17 18 19 20 21 22 23 24 25 26 27 28 29 30 31 32 33 34 35 36 37 38 39 40 41 42 43 44 45 46 47 48 49 50
000
ASUS42 KCAE 231710
RWRCAE
REGIONAL WEATHER ROUNDUP
NATIONAL WEATHER SERVICE COLUMBIA SC
100 PM EDT SAT AUG 23 2014

NOTE: "FAIR" INDICATES FEW OR NO CLOUDS BELOW 12,000 FEET WITH NO
SIGNIFICANT WEATHER AND/OR OBSTRUCTIONS TO VISIBILITY.

NOT ALL STATIONS ARE QUALITY CONTROLLED BY THE NATIONAL
WEATHER SERVICE. USE DATA WITH CAUTION...ESPECIALLY
DEWPOINT OBSERVATIONS.

SCZ001>056-GAZ040-063>065-077-231800-
...UPSTATE SOUTH CAROLINA...

CITY           SKY/WX    TMP DP  RH WIND       PRES   REMARKS
ANDERSON       SUNNY     92  67  43 SW6       29.98F HX  95
LIBERTY        FAIR      90  88  94 CALM      29.99F HX 126
SPARTANBURG    FAIR      90  72  55 NE3       29.98F HX  96
CLEMSON        SUNNY     92  68  45 E6        29.99F HX  96
GREENVILLE     MOSUNNY   91  69  48 VRB6      30.00F HX  96
GREENWOOD      MOSUNNY   97  67  37 N8        29.98F HX 101
GREER          MOSUNNY   90  69  50 N8        29.98F
ROCK HILL      MOSUNNY   88  71  57 N8        29.99F
CHESTER        FAIR      93  64  38 N10       29.98F HX  95
LAURENS        FAIR      90  59  35 N6        29.98F


...CENTRAL SOUTH CAROLINA...

CITY           SKY/WX    TMP DP  RH WIND       PRES   REMARKS
COLUMBIA APT   PTSUNNY   96  70  42 VRB5      29.93S HX 102
COLUMBIA OWENS MOSUNNY   96  70  42 VRB5      29.94F HX 102
DARLINGTON     MOSUNNY   90  73  58 N8        29.94F HX  98
FLORENCE       MOSUNNY   92  73  53 NE7       29.91F HX 100
MCENTIRE ANGB  MOSUNNY   95  72  47 NE7       29.93F HX 102
ORANGEBURG     MOSUNNY   95  71  45 VRB7      29.92F HX 102
SUMTER SHAW    SUNNY     92  74  54 NE10      29.92F HX 101
NEWBERRY       CLOUDY    91  63  38 CALM      29.99S
AIKEN          PTSUNNY   93  72  49 NW7       29.98F HX 100
BARNWELL       FAIR      97  72  44 NW6       29.93F HX 105
MANNING        FAIR      93  79  62 NW6       29.92S HX 110
CAMDEN         FAIR      91  72  52 NW6       29.95F HX  98
LANCASTER      FAIR      91  70  49 N6        29.97S HX  97
WINNSBORO      FAIR      90  70  51 NE6       29.96S HX  95


...EASTERN AND COASTAL SOUTH CAROLINA...

CITY           SKY/WX    TMP DP  RH WIND       PRES   REMARKS
MYRTLE BEACH   MOSUNNY   91  79  66 SE9       29.90F HX 107
N MYRTLE BCH   SUNNY     89  78  70 VRB7      29.90F HX 103
CONWAY         FAIR      90  77  66 N3        29.90F HAZE    HX 102
MARION         FAIR      90  73  58 CALM      29.92S HX  98
HARTSVILLE     FAIR      91  45  19 N6        29.96S
FLORENCE       MOSUNNY   92  73  53 NE7       29.91F HX 100
DARLINGTON     MOSUNNY   90  73  58 N8        29.94F HX  98
CHARLESTON APT MOSUNNY   96  71  44 VRB6      29.90F HX 103
MOUNT PLEASANT FAIR      97  72  44 W6        29.90F HX 105
WALTERBORO     SUNNY     97  64  34 NW8       29.92F HX  99
BEAUFORT       SUNNY     96  70  42 N10       29.91F HX 102


...EASTERN GEORGIA...

CITY           SKY/WX    TMP DP  RH WIND       PRES   REMARKS
AUGUSTA BUSH F MOSUNNY   96  70  42 VRB7      29.93F HX 102
AUGUSTA DANIEL SUNNY     97  67  37 NW9       29.96F HX 101
THOMSON        SUNNY     94  76  55 CALM      30.00F HX 106
WASHINGTON     FAIR      97  75  49 W5        29.97F HX 109
CLAXTON        FAIR      97  73  46 NW12      29.93F HX 107
SYLVANIA       SUNNY     95  73  49 NW9       29.94F HX 105
STATESBORO     SUNNY     94  72  49 W9        29.94F HX 101
SAVANNAH       MOSUNNY   97  69  40 NW7       29.92F HX 103


...SOUTHERN NORTH CAROLINA...

CITY           SKY/WX    TMP DP  RH WIND       PRES   REMARKS
CHARLOTTE      CLOUDY    88  68  51 N9        29.99F
MONROE         MOSUNNY   88  70  55 N7        29.97F
WADESBORO      MOSUNNY   87  72  61 NE6       29.95F
ROCKINGHAM     MOSUNNY   85  74  68 NW7       29.95F
RUTHERFORDTON  SUNNY     87  72  60 NW8       30.01F
ASHEVILLE      PTSUNNY   83  67  58 NW13      30.07F

$$


USA.gov is the U.S. government's official web portal to all federal, state and local government web resources and services.